1483434001.06,55411,8.94,72512.3,-15.69,-19.27,-18.89,0,*6A
1483434002.34,55412,8.94,72506.8,-15.69,-19.27,-19.13,0,*6B
1483434003.61,55413,8.88,72508.3,-15.69,-19.31,-19.03,0,*6C
1483434004.83,55414,8.94,72514.3,-15.71,-19.17,-18.83,0,*6F
1483434006.1,55415,8.88,72508.0,-15.67,-18.93,-18.55,0,*6F
1483434007.31,55416,8.94,72522.3,-15.67,-18.99,-18.65,0,*65
1483434008.53,55417,8.94,72524.3,-15.67,-18.99,-18.65,0,*64
1483434009.75,55418,8.94,72528.3,-15.67,-19.07,-18.65,0,*6D
1483434011.0,55419,8.94,72528.5,-15.69,-18.99,-18.69,0,*68
1483434012.24,55420,8.88,72520.3,-15.67,-18.93,-18.65,0,*6A
1483434013.51,55421,8.94,72536.8,-15.67,-18.93,-18.55,0,*68
1483434014.73,55422,8.94,72542.0,-15.67,-18.83,-18.49,0,*67
1483434015.94,55423,8.94,72538.0,-15.67,-19.07,-18.69,0,*69
1483434017.17,55424,8.94,72538.0,-15.67,-19.13,-18.69,0,*6B
1483434018.39,55425,8.94,72534.5,-15.67,-18.99,-18.69,0,*69
1483434019.6,55426,8.94,72532.0,-15.67,-19.07,-18.69,0,*6C
1483434020.82,55427,8.94,72538.5,-15.67,-18.79,-18.49,0,*67
1483434022.09,55428,8.88,72536.8,-15.67,-18.93,-18.55,0,*61
1483434023.3,55429,8.94,72534.3,-15.67,-19.07,-18.79,0,*62
1483434024.55,55430,8.88,72528.8,-15.71,-19.13,-18.89,0,*67
1483434025.79,55431,8.94,72534.0,-15.69,-19.13,-18.83,0,*65
1483434027.04,55432,8.88,72536.5,-15.69,-18.83,-18.69,0,*6A
1483434028.26,55433,8.94,72544.0,-15.71,-18.69,-18.49,0,*64
1483434029.54,55434,8.88,72542.5,-15.69,-19.27,-19.13,0,*6F
1483434030.78,55435,8.94,72542.5,-15.69,-19.03,-18.83,0,*60
1483434032.02,55436,8.94,72542.5,-15.69,-18.99,-18.83,0,*61
1483434033.26,55437,8.94,72554.8,-15.71,-19.13,-18.89,0,*60
1483434034.52,55438,8.94,72554.3,-15.71,-19.27,-19.13,0,*6A
1483434035.79,55439,8.88,72542.3,-15.71,-19.61,-19.41,0,*6E
1483434037.06,55440,8.88,72528.3,-15.71,-19.31,-19.31,0,*62
1483434038.33,55441,8.88,72520.3,-15.71,-19.41,-19.41,0,*63
1483434039.6,55442,8.94,72522.0,-15.73,-19.17,-18.93,0,*6F
1483434040.85,55443,8.88,72536.8,-15.73,-18.65,-18.45,0,*61
1483434042.11,55444,8.88,72536.3,-15.73,-19.23,-19.03,0,*66
1483434043.33,55445,8.88,72536.3,-15.71,-19.17,-19.03,0,*62
1483434044.57,55446,8.88,72536.3,-15.73,-19.03,-18.79,0,*6A
1483434045.81,55447,8.88,72540.8,-15.75,-18.93,-18.65,0,*68
1483434047.04,55448,8.94,72538.0,-15.75,-19.03,-18.89,0,*6D
1483434048.29,55449,8.88,72536.0,-15.73,-18.73,-18.65,0,*6E
1483434049.52,55450,8.88,72536.0,-15.75,-18.65,-18.55,0,*64
1483434050.76,55451,8.88,72532.5,-15.75,-18.65,-18.55,0,*65
1483434052.03,55452,8.88,72538.8,-15.73,-18.55,-18.45,0,*62
1483434053.31,55453,8.88,72540.8,-15.73,-18.59,-18.55,0,*6E
1483434054.56,55454,8.94,72542.8,-15.73,-18.65,-18.65,0,*65
1483434055.85,55455,8.88,72538.3,-15.73,-18.59,-18.55,0,*68
1483434057.11,55456,8.88,72538.8,-15.73,-18.55,-18.45,0,*66
1483434058.4,55457,8.88,72536.3,-15.73,-18.89,-18.93,0,*6D
1483434059.66,55458,8.88,72536.3,-15.73,-18.89,-18.79,0,*66
1483434060.93,55459,8.88,72532.5,-15.73,-18.65,-18.55,0,*6B
1483434062.17,55460,8.88,72534.3,-15.75,-18.73,-18.55,0,*60
1483434063.45,55461,8.88,72530.5,-15.73,-18.59,-18.55,0,*6F
1483434064.74,55462,8.88,72536.5,-15.73,-18.59,-18.55,0,*6C
1483434066.0,55463,8.94,72546.0,-15.75,-18.55,-18.55,0,*67
1483434067.27,55464,8.88,72544.3,-15.73,-18.59,-18.45,0,*6B
1483434068.48,55465,8.88,72548.0,-15.75,-18.73,-18.65,0,*66
1483434069.73,55466,8.88,72546.8,-15.75,-19.37,-19.31,0,*64
1483434070.96,55467,8.88,72536.3,-15.75,-19.03,-18.89,0,*60
1483434072.26,55468,8.88,72528.5,-15.73,-19.31,-19.31,0,*6A
1483434073.5,55469,8.88,72526.0,-15.75,-19.65,-19.51,0,*6A
1483434074.75,55470,8.94,72524.5,-15.77,-19.37,-19.17,0,*65
1483434076.02,55471,8.88,72532.0,-15.81,-19.37,-19.27,0,*6E
1483434077.26,55472,8.88,72534.0,-15.77,-19.17,-19.03,0,*60
1483434078.53,55473,8.88,72526.0,-15.77,-19.23,-19.03,0,*66
1483434079.77,55474,8.88,72532.5,-15.83,-19.31,-19.17,0,*6C
1483434081.05,55475,8.88,72536.3,-15.81,-19.27,-19.13,0,*6C
1483434082.31,55476,8.88,72530.8,-15.81,-19.23,-19.07,0,*6E
1483434083.56,55477,8.88,72530.3,-15.83,-19.31,-19.13,0,*6B
1483434084.76,55478,8.88,72526.0,-15.83,-19.03,-18.99,0,*66
1483434085.97,55479,8.88,72528.5,-15.83,-18.99,-18.83,0,*6E
1483434087.19,55480,8.88,72528.8,-15.83,-19.13,-18.99,0,*60
1483434088.4,55481,8.88,72524.3,-15.83,-19.17,-19.03,0,*67
1483434089.67,55482,8.88,72516.8,-15.85,-19.17,-18.89,0,*61
1483434090.88,55483,8.88,72526.8,-15.83,-19.03,-18.83,0,*69
1483434092.09,55484,8.88,72526.8,-15.83,-18.99,-18.83,0,*6C
1483434093.33,55485,8.88,72526.5,-15.85,-19.03,-18.99,0,*62
1483434094.6,55486,8.88,72526.8,-15.85,-18.89,-18.73,0,*66
1483434095.86,55487,8.88,72526.5,-15.85,-18.73,-18.55,0,*66
1483434097.1,55488,8.88,72524.3,-15.85,-19.03,-18.99,0,*6F
1483434098.35,55489,8.88,72528.0,-15.85,-19.13,-19.03,0,*6D
1483434099.62,55490,8.88,72520.3,-15.85,-19.31,-19.17,0,*60
1483434100.85,55491,8.88,72516.8,-15.83,-19.17,-19.13,0,*67
1483434102.11,55492,8.88,72520.8,-15.89,-19.07,-18.93,0,*66
1483434103.34,55493,8.88,72518.3,-15.89,-19.17,-19.07,0,*6A
1483434104.56,55494,8.88,72520.0,-15.91,-19.51,-19.47,0,*62
1483434105.83,55495,8.88,72520.8,-15.91,-19.31,-19.23,0,*67
1483434107.06,55496,8.88,72534.3,-15.89,-19.17,-19.07,0,*6F
1483434108.31,55497,8.88,72524.8,-15.91,-19.23,-19.17,0,*61
1483434109.55,55498,8.88,72528.3,-15.89,-19.17,-19.17,0,*60
1483434110.77,55499,8.88,72514.3,-15.91,-19.17,-19.17,0,*68
1483434111.99,55500,8.88,72522.8,-15.91,-19.07,-19.03,0,*6D
1483434113.24,55501,8.88,72526.0,-15.91,-18.89,-18.89,0,*68
1483434114.51,55502,8.88,72532.8,-15.91,-19.31,-19.31,0,*6B
1483434115.76,55503,8.88,72530.0,-15.91,-19.23,-19.17,0,*6D
1483434117.03,55504,8.88,72522.8,-15.93,-19.23,-19.13,0,*6C
1483434118.25,55505,8.88,72520.8,-15.95,-19.07,-18.99,0,*6E
1483434119.49,55506,8.88,72522.3,-15.93,-18.65,-18.65,0,*6D
1483434120.76,55507,8.88,72520.8,-15.93,-18.45,-18.31,0,*6F
1483434122.01,55508,8.88,72518.8,-15.91,-18.45,-18.31,0,*62
1483434123.28,55509,8.88,72520.0,-15.89,-18.41,-18.31,0,*6E
1483434124.49,55510,8.88,72520.8,-15.91,-18.41,-18.25,0,*6A
1483434125.71,55511,8.88,72532.0,-15.91,-18.45,-18.41,0,*6D
1483434126.94,55512,8.88,72538.8,-15.91,-18.55,-18.41,0,*6F
1483434128.21,55513,8.88,72548.8,-15.89,-18.45,-18.31,0,*61
1483434129.47,55514,8.88,72548.3,-15.91,-18.59,-18.55,0,*60
1483434130.73,55515,8.88,72548.0,-15.89,-18.73,-18.59,0,*6C
1483434131.99,55516,8.88,72534.3,-15.89,-18.89,-18.73,0,*62
1483434133.25,55517,8.88,72536.5,-15.89,-19.65,-19.51,0,*61
1483434134.49,55518,8.88,72516.5,-15.89,-19.51,-19.37,0,*69
1483434135.73,55519,8.88,72510.0,-15.91,-19.65,-19.51,0,*66
1483434136.95,55520,8.88,72506.0,-15.91,-19.17,-19.07,0,*6A
1483434138.18,55521,8.88,72508.5,-15.93,-19.07,-18.99,0,*6E
1483434139.42,55522,8.88,72512.3,-15.93,-18.99,-18.83,0,*60
1483434140.69,55523,8.88,72520.0,-15.93,-19.07,-18.93,0,*66
1483434141.97,55524,8.88,72528.5,-15.93,-19.37,-19.27,0,*6C
1483434143.24,55525,8.88,72524.8,-15.93,-19.51,-19.41,0,*6D
1483434144.46,55526,8.88,72520.5,-15.95,-19.51,-19.37,0,*69
1483434145.73,55527,8.88,72516.0,-15.95,-19.41,-19.41,0,*68
1483434146.98,55528,8.88,72518.8,-15.95,-19.37,-19.27,0,*66
1483434148.22,55529,8.88,72514.8,-15.93,-19.13,-18.99,0,*63
1483434149.44,55530,8.88,72502.5,-15.95,-19.13,-18.99,0,*6D
1483434150.66,55531,8.88,72496.5,-15.95,-19.13,-19.07,0,*6A
1483434151.88,55532,8.88,72500.3,-15.95,-19.13,-19.13,0,*6C
1483434153.18,55533,8.88,72512.3,-15.97,-19.27,-19.27,0,*6F
1483434154.43,55534,8.88,72508.5,-15.97,-19.17,-19.13,0,*6C
1483434155.69,55535,8.88,72510.8,-15.97,-18.89,-18.83,0,*63
1483434156.94,55536,8.88,72484.5,-15.97,-18.89,-18.83,0,*60
1483434158.15,55537,8.88,72484.0,-15.99,-18.99,-18.99,0,*65
1483434159.4,55538,8.88,72490.0,-15.97,-19.13,-18.99,0,*67
1483434160.63,55539,8.88,72486.3,-15.97,-19.03,-19.03,0,*65
1483434161.89,55540,8.88,72500.0,-15.97,-19.03,-18.89,0,*68
1483434163.15,55541,8.88,72506.5,-15.97,-19.41,-19.47,0,*6C
1483434164.43,55542,8.88,72496.5,-15.99,-19.27,-19.27,0,*67
1483434165.71,55543,8.88,72502.5,-15.99,-19.27,-19.27,0,*66
1483434166.97,55544,8.88,72516.5,-15.99,-18.89,-18.89,0,*61
1483434168.18,55545,8.88,72520.0,-15.99,-18.99,-19.03,0,*62
1483434169.42,55546,8.88,72536.0,-15.99,-18.99,-18.89,0,*62
1483434170.63,55547,8.88,72540.3,-15.99,-18.83,-18.79,0,*67
1483434171.91,55548,8.88,72532.3,-15.99,-19.27,-19.27,0,*6D
1483434173.13,55549,8.94,72540.8,-15.99,-19.17,-19.13,0,*68
1483434174.36,55550,8.88,72526.0,-15.99,-19.17,-19.17,0,*64
1483434175.57,55551,8.88,72524.3,-15.99,-19.03,-19.03,0,*65
1483434176.79,55552,8.88,72522.5,-15.99,-19.13,-19.17,0,*62
1483434178.02,55553,8.88,72530.8,-15.99,-19.17,-19.13,0,*63
1483434179.23,55554,8.88,72538.5,-15.99,-18.79,-18.79,0,*60
1483434180.44,55555,8.88,72524.3,-15.99,-19.03,-19.03,0,*61
1483434181.65,55556,8.88,72530.5,-15.99,-18.83,-18.79,0,*67
1483434182.87,55557,8.88,72530.8,-15.99,-18.69,-18.69,0,*63
1483434184.13,55558,8.94,72528.0,-16.01,-18.89,-18.83,0,*64
1483434185.37,55559,8.88,72538.0,-16.01,-19.07,-19.17,0,*6E
1483434186.58,55560,8.88,72540.3,-15.99,-18.83,-18.83,0,*67
1483434187.8,55561,8.88,72536.0,-15.99,-18.83,-18.83,0,*66
1483434189.01,55562,8.88,72542.3,-15.99,-18.79,-18.79,0,*65
1483434190.25,55563,8.88,72542.5,-15.97,-18.79,-18.69,0,*6B
1483434191.51,55564,8.88,72540.8,-15.97,-18.99,-18.89,0,*6C
1483434192.75,55565,8.88,72538.3,-15.99,-18.99,-18.89,0,*63
1483434193.99,55566,8.88,72546.3,-15.99,-18.99,-18.89,0,*60
1483434195.23,55567,8.88,72548.0,-15.97,-18.79,-18.69,0,*6F
1483434196.45,55568,8.88,72546.8,-15.99,-18.69,-18.69,0,*6F
1483434197.69,55569,8.88,72546.0,-15.99,-18.65,-18.55,0,*6D
1483434198.93,55570,8.88,72542.8,-15.97,-18.79,-18.79,0,*68
1483434200.14,55571,8.88,72546.3,-15.99,-18.79,-18.79,0,*67
1483434201.38,55572,8.88,72550.0,-15.99,-18.55,-18.41,0,*61
1483434202.62,55573,8.88,72550.8,-15.99,-18.65,-18.55,0,*66
1483434203.83,55574,8.88,72548.8,-15.99,-18.65,-18.65,0,*62
1483434205.07,55575,8.88,72548.8,-15.99,-18.99,-18.89,0,*62
1483434206.28,55576,8.88,72534.3,-15.99,-18.79,-18.79,0,*60
1483434207.5,55577,8.88,72530.8,-15.99,-18.83,-18.69,0,*65
1483434208.72,55578,8.88,72528.8,-15.99,-18.69,-18.65,0,*62
1483434209.94,55579,8.88,72528.3,-15.99,-18.79,-18.69,0,*6E
1483434211.18,55580,8.88,72524.5,-15.97,-18.65,-18.65,0,*67
1483434212.42,55581,8.88,72536.3,-15.97,-18.69,-18.69,0,*66
1483434213.64,55582,8.88,72542.0,-15.99,-18.83,-18.79,0,*6E
1483434214.85,55583,8.88,72536.3,-15.99,-18.83,-18.79,0,*6F
1483434216.09,55584,8.88,72516.3,-15.99,-19.13,-18.89,0,*6F
1483434217.3,55585,8.88,72500.3,-15.99,-19.03,-18.99,0,*6E
1483434218.58,55586,8.88,72444.0,-15.97,-19.27,-19.13,0,*66
1483434219.87,55587,8.88,72466.8,-15.97,-19.41,-19.27,0,*60
1483434221.15,55588,8.88,72484.0,-15.99,-19.31,-19.41,0,*66
1483434222.43,55589,8.88,72510.8,-15.99,-19.57,-19.57,0,*60
1483434223.69,55590,8.88,72500.0,-16.01,-19.61,-19.51,0,*69
1483434224.93,55591,8.88,72512.3,-16.01,-19.17,-19.07,0,*6A
1483434226.19,55592,8.88,72486.5,-16.05,-19.07,-19.23,0,*6A
1483434227.48,55593,8.88,72506.5,-16.01,-19.23,-19.23,0,*69
1483434228.71,55594,8.88,72482.3,-16.05,-19.07,-19.07,0,*6A
1483434229.95,55595,8.88,72500.8,-16.05,-19.47,-19.47,0,*6B
1483434231.22,55596,8.88,72508.5,-16.01,-19.23,-19.17,0,*6B
1483434232.51,55597,8.88,72508.3,-16.05,-18.93,-18.93,0,*69
1483434233.74,55598,8.88,72516.3,-16.05,-19.07,-19.03,0,*62
1483434234.98,55599,8.88,72506.0,-16.05,-19.17,-19.07,0,*66
1483434236.27,55600,8.88,72492.8,-16.05,-19.31,-19.23,0,*67
1483434237.49,55601,8.88,72480.0,-16.07,-19.51,-19.51,0,*67
1483434238.73,55602,8.88,72476.8,-16.07,-19.13,-19.23,0,*67
1483434239.96,55603,8.88,72470.5,-16.05,-19.07,-19.07,0,*67
1483434241.2,55604,8.88,72486.0,-16.07,-19.41,-19.37,0,*63
1483434242.49,55605,8.88,72480.5,-16.09,-19.41,-19.41,0,*6D
1483434243.73,55606,8.88,72496.8,-16.07,-19.23,-18.99,0,*60
1483434244.95,55607,8.88,72486.8,-16.07,-19.07,-18.99,0,*67
1483434246.19,55608,8.88,72496.0,-16.07,-18.99,-18.93,0,*64
1483434247.43,55609,8.88,72492.5,-16.07,-18.99,-18.93,0,*65
1483434248.67,55610,8.88,72510.5,-16.07,-18.99,-18.89,0,*66
1483434249.91,55611,8.88,72512.0,-16.07,-19.07,-18.93,0,*6A
1483434251.14,55612,8.88,72516.3,-16.07,-19.51,-19.13,0,*63
1483434252.37,55613,8.88,72512.0,-16.09,-19.07,-18.99,0,*6C
1483434253.61,55614,8.88,72506.3,-16.07,-18.93,-18.79,0,*67
1483434254.87,55615,8.88,72502.5,-16.09,-18.73,-18.59,0,*64
1483434256.11,55616,8.88,72514.3,-16.09,-18.65,-18.45,0,*6D
1483434257.37,55617,8.88,72528.3,-16.07,-18.59,-18.35,0,*6A
1483434258.59,55618,8.88,72528.3,-16.07,-18.49,-18.45,0,*63
1483434259.83,55619,8.88,72558.5,-16.07,-18.49,-18.35,0,*65
1483434261.07,55620,8.88,72530.3,-16.05,-18.45,-18.41,0,*62
1483434262.3,55621,8.88,72530.5,-16.05,-18.41,-18.25,0,*65
1483434263.54,55622,8.88,72514.5,-16.05,-18.45,-18.41,0,*60
1483434264.8,55623,8.88,72478.8,-16.01,-18.55,-18.45,0,*60
1483434266.06,55624,8.88,72462.5,-16.05,-18.59,-18.45,0,*6F
1483434267.34,55625,8.88,72466.3,-16.05,-18.59,-18.59,0,*63
1483434268.6,55626,8.88,72488.3,-16.01,-18.69,-18.59,0,*67
1483434269.85,55627,8.88,72538.0,-16.01,-18.45,-18.59,0,*68
1483434271.09,55628,8.88,72548.8,-16.05,-18.41,-18.41,0,*6E
1483434272.37,55629,8.88,72540.0,-16.05,-18.55,-18.59,0,*63
1483434273.61,55630,8.88,72528.5,-16.01,-18.69,-18.73,0,*68
1483434274.86,55631,8.88,72528.5,-16.01,-18.45,-18.45,0,*62
1483434276.14,55632,8.88,72534.8,-16.01,-18.59,-18.59,0,*61
1483434277.38,55633,8.88,72530.3,-16.01,-18.73,-18.73,0,*60
1483434278.66,55634,8.88,72524.8,-16.05,-18.89,-18.89,0,*63
1483434279.92,55635,8.88,72512.3,-16.05,-18.83,-18.93,0,*63
1483434281.2,55636,8.88,72506.0,-16.01,-18.89,-18.89,0,*65
1483434282.43,55637,8.88,72510.0,-16.01,-19.03,-19.07,0,*60
1483434283.67,55638,8.88,72514.3,-16.05,-18.73,-18.73,0,*6F
1483434284.91,55639,8.88,72518.8,-16.05,-18.69,-18.73,0,*65
1483434286.15,55640,8.88,72512.0,-16.05,-18.69,-18.69,0,*60
1483434287.43,55641,8.88,72526.0,-16.05,-18.55,-18.59,0,*6D
1483434288.69,55642,8.88,72532.5,-16.05,-18.45,-18.55,0,*63
1483434289.98,55643,8.88,72530.8,-16.05,-18.55,-18.55,0,*63
1483434291.21,55644,8.88,72538.3,-16.05,-18.45,-18.45,0,*64
1483434292.45,55645,8.88,72532.0,-16.05,-18.73,-18.73,0,*65
1483434293.75,55646,8.88,72546.5,-16.01,-18.93,-18.93,0,*62
1483434294.98,55647,8.88,72548.5,-16.01,-19.03,-19.03,0,*63
1483434296.21,55648,8.88,72514.0,-16.05,-19.07,-19.03,0,*6C
1483434297.44,55649,8.88,72512.3,-16.05,-18.83,-18.83,0,*69
1483434298.65,55650,8.88,72530.5,-15.99,-19.03,-19.03,0,*67
1483434299.9,55651,8.88,72522.0,-16.05,-19.37,-19.37,0,*60
1483434301.19,55652,8.88,72518.0,-16.05,-19.23,-19.31,0,*60
1483434302.42,55653,8.88,72512.8,-16.05,-19.17,-19.07,0,*63
1483434303.66,55654,8.88,72512.5,-16.05,-19.17,-19.07,0,*64
1483434304.94,55655,8.88,72518.0,-16.05,-18.89,-18.93,0,*6F
1483434306.19,55656,8.88,72518.3,-16.05,-18.89,-18.83,0,*6D
1483434307.42,55657,8.88,72516.5,-16.05,-18.83,-18.83,0,*66
1483434308.66,55658,8.88,72524.0,-16.05,-18.83,-18.83,0,*69
1483434309.89,55659,8.88,72494.0,-16.05,-18.83,-18.83,0,*68
1483434311.14,55660,8.88,72506.5,-16.05,-18.89,-18.83,0,*68
1483434312.38,55661,8.88,72518.0,-16.05,-19.07,-19.17,0,*62
1483434313.65,55662,8.88,72508.0,-16.05,-19.51,-19.61,0,*63
1483434314.91,55663,8.88,72508.8,-16.05,-19.65,-19.75,0,*60
1483434316.2,55664,8.88,72500.3,-16.05,-19.65,-19.81,0,*6C
1483434317.44,55665,8.88,72494.0,-16.07,-19.71,-19.81,0,*6A
1483434318.72,55666,8.88,72498.5,-16.09,-19.81,-19.81,0,*68
1483434319.97,55667,8.88,72506.8,-16.09,-19.71,-19.71,0,*69
1483434321.25,55668,8.88,72506.0,-16.09,-19.81,-19.81,0,*66
1483434322.51,55669,8.88,72492.3,-16.09,-19.85,-19.71,0,*6C
1483434323.76,55670,8.88,72500.8,-16.09,-19.81,-19.71,0,*60
1483434325.04,55671,8.88,72510.5,-16.09,-19.71,-19.65,0,*6B
1483434326.28,55672,8.88,72512.5,-16.09,-19.99,-19.71,0,*6B
1483434327.52,55673,8.88,72500.8,-16.09,-19.99,-19.71,0,*6A
1483434328.78,55674,8.88,72504.3,-16.09,-19.85,-19.51,0,*62
1483434330.01,55675,8.88,72504.3,-16.11,-19.41,-19.03,0,*65
1483434331.26,55676,8.88,72504.8,-16.11,-19.71,-19.27,0,*63
1483434332.47,55677,8.88,72488.5,-16.11,-19.99,-19.71,0,*67
1483434333.71,55678,8.88,72492.5,-16.11,-19.75,-19.31,0,*6E
1483434334.97,55679,8.88,72514.3,-16.11,-19.41,-18.93,0,*61
1483434336.22,55680,8.88,72512.3,-16.07,-19.57,-19.13,0,*6E
1483434337.52,55681,8.88,72486.8,-16.09,-19.85,-19.57,0,*6E
1483434338.79,55682,8.88,72500.0,-16.09,-19.57,-19.13,0,*62
1483434340.08,55683,8.88,72514.3,-16.09,-19.23,-18.93,0,*69
1483434341.34,55684,8.88,72522.5,-16.11,-19.27,-19.13,0,*6A
1483434342.55,55685,8.88,72506.5,-16.11,-19.71,-19.71,0,*6C
1483434343.79,55686,8.88,72506.3,-16.11,-19.47,-19.41,0,*69
1483434345.01,55687,8.88,72508.3,-16.11,-19.03,-19.13,0,*6F
1483434346.23,55688,8.88,72514.3,-16.07,-19.07,-19.13,0,*63
1483434347.53,55689,8.88,72518.8,-16.09,-19.27,-19.23,0,*6D
1483434348.8,55690,8.88,72524.5,-16.09,-19.23,-19.13,0,*62
1483434350.01,55691,8.88,72520.5,-16.11,-19.47,-19.47,0,*69
1483434351.29,55692,8.88,72504.8,-16.09,-19.71,-19.57,0,*67
1483434352.56,55693,8.88,72510.8,-16.09,-19.65,-19.51,0,*65
1483434353.85,55694,8.88,72516.3,-16.09,-19.57,-19.41,0,*62
1483434355.1,55695,8.88,72516.3,-16.11,-19.27,-18.99,0,*69
1483434356.39,55696,8.88,72516.0,-16.09,-19.23,-18.93,0,*6D
1483434357.61,55697,8.88,72512.8,-16.11,-19.17,-18.83,0,*63
1483434358.87,55698,8.81,72504.5,-16.09,-19.13,-18.89,0,*6B
1483434360.15,55699,8.88,72508.3,-16.09,-19.27,-18.99,0,*6C
1483434361.41,55700,8.88,72510.5,-16.09,-18.93,-18.79,0,*6D
1483434362.67,55701,8.88,72514.5,-16.09,-18.89,-18.65,0,*6A
1483434363.91,55702,8.88,72520.0,-16.07,-18.89,-18.73,0,*60
1483434365.17,55703,8.88,72522.0,-16.09,-18.89,-18.73,0,*6F
1483434366.44,55704,8.88,72522.3,-16.09,-18.89,-18.73,0,*68
1483434367.68,55705,8.88,72514.0,-16.09,-18.65,-18.49,0,*62
1483434368.89,55706,8.88,72514.0,-16.07,-19.07,-18.99,0,*67
1483434370.16,55707,8.88,72520.8,-16.07,-18.93,-18.93,0,*60
1483434371.38,55708,8.88,72532.0,-16.07,-19.37,-19.37,0,*6F
1483434372.63,55709,8.88,72526.3,-16.07,-19.37,-19.27,0,*6F
1483434373.88,55710,8.88,72516.8,-16.07,-19.27,-19.37,0,*67
1483434375.19,55711,8.88,72492.8,-16.09,-19.27,-19.41,0,*69
1483434376.46,55712,8.88,72498.0,-16.07,-18.93,-18.93,0,*64
1483434377.68,55713,8.88,72514.0,-16.07,-18.73,-18.73,0,*65
1483434378.92,55714,8.88,72520.5,-16.07,-18.59,-18.65,0,*6D
1483434380.16,55715,8.88,72510.5,-16.05,-18.69,-18.69,0,*61
1483434381.41,55716,8.88,72520.0,-16.05,-18.89,-18.83,0,*68
1483434382.69,55717,8.88,72538.5,-16.05,-18.93,-18.89,0,*68
1483434383.98,55718,8.88,72528.8,-16.05,-19.31,-19.23,0,*6F
1483434385.28,55719,8.81,72524.8,-16.05,-19.31,-19.31,0,*6D
1483434386.55,55720,8.88,72512.5,-16.01,-19.61,-19.37,0,*60
1483434387.81,55721,8.88,72528.3,-16.05,-19.51,-19.31,0,*60
1483434389.08,55722,8.88,72524.8,-16.05,-19.31,-19.17,0,*61
1483434390.34,55723,8.81,72518.8,-16.05,-19.23,-19.03,0,*66
1483434391.57,55724,8.88,72506.8,-16.05,-18.83,-18.83,0,*63
1483434392.81,55725,8.88,72504.0,-16.05,-18.73,-18.69,0,*69
1483434394.1,55726,8.81,72508.3,-16.05,-18.55,-18.55,0,*61
1483434395.33,55727,8.88,72512.3,-16.01,-18.73,-18.83,0,*6B
1483434396.59,55728,8.88,72512.5,-16.01,-18.89,-18.83,0,*61
1483434397.82,55729,8.88,72502.5,-16.01,-18.83,-18.83,0,*6A
1483434399.09,55730,8.88,72512.5,-16.01,-18.59,-18.69,0,*61
1483434400.35,55731,8.88,72518.8,-16.01,-18.55,-18.73,0,*67
1483434401.57,55732,8.88,72520.8,-15.99,-18.49,-18.65,0,*6C
1483434402.81,55733,8.81,72520.8,-15.99,-18.41,-18.55,0,*66
1483434404.07,55734,8.88,72522.0,-15.99,-18.55,-18.55,0,*64
1483434405.29,55735,8.88,72510.0,-15.99,-18.69,-18.65,0,*69
1483434406.53,55736,8.88,72504.0,-15.97,-18.65,-18.69,0,*64
1483434407.79,55737,8.88,72514.8,-15.95,-18.59,-18.59,0,*6B
1483434409.03,55738,8.81,72518.3,-15.93,-18.49,-18.45,0,*6E
1483434410.28,55739,8.88,72534.5,-15.95,-18.45,-18.35,0,*62
1483434411.54,55740,8.88,72524.3,-15.93,-18.59,-18.49,0,*6C
1483434412.81,55741,8.88,72526.3,-15.93,-18.59,-18.45,0,*61
1483434414.07,55742,8.88,72528.5,-15.93,-18.59,-18.49,0,*6E
1483434415.31,55743,8.81,72518.0,-15.91,-18.59,-18.45,0,*61
1483434416.55,55744,8.88,72544.0,-15.91,-18.55,-18.41,0,*6E
1483434417.79,55745,8.88,72528.5,-15.89,-18.45,-18.45,0,*63
1483434419.02,55746,8.88,72526.8,-15.91,-19.23,-19.07,0,*6F
1483434420.31,55747,8.88,72530.3,-15.89,-19.31,-19.23,0,*62
1483434421.53,55748,8.88,72534.5,-15.91,-19.47,-19.37,0,*60
1483434422.8,55749,8.88,72528.3,-15.91,-19.23,-19.31,0,*65
1483434424.02,55750,8.88,72530.0,-15.91,-19.07,-19.17,0,*6F
1483434425.24,55751,8.88,72538.5,-15.91,-19.17,-19.17,0,*6F
1483434426.48,55752,8.81,72534.8,-15.91,-19.03,-19.23,0,*6E
1483434427.72,55753,8.88,72534.8,-15.91,-18.93,-19.03,0,*65
1483434428.95,55754,8.81,72534.0,-15.91,-18.93,-19.03,0,*62
1483434430.19,55755,8.81,72534.0,-15.89,-19.03,-19.03,0,*62
1483434431.45,55756,8.88,72534.8,-15.91,-18.93,-18.93,0,*68
1483434432.67,55757,8.88,72534.8,-15.91,-19.07,-19.03,0,*6D
1483434433.91,55758,8.88,72538.8,-15.89,-19.17,-19.17,0,*6F
1483434435.15,55759,8.88,72534.8,-15.91,-19.17,-19.23,0,*60
1483434436.44,55760,8.88,72532.5,-15.89,-19.23,-19.31,0,*67
1483434437.65,55761,8.81,72530.5,-15.91,-19.03,-19.03,0,*6C
1483434438.91,55762,8.81,72534.8,-15.89,-18.69,-18.89,0,*68
1483434440.16,55763,8.88,72532.0,-15.89,-18.69,-18.73,0,*6C
1483434441.41,55764,8.88,72528.0,-15.89,-18.79,-18.89,0,*6F
1483434442.69,55765,8.88,72530.3,-15.89,-18.89,-18.89,0,*61
1483434443.98,55766,8.88,72532.3,-15.85,-18.89,-18.89,0,*6E
1483434445.21,55767,8.88,72538.5,-15.83,-18.89,-18.99,0,*68
1483434446.47,55768,8.88,72538.3,-15.85,-18.89,-18.99,0,*61
1483434447.73,55769,8.81,72538.3,-15.83,-18.89,-18.89,0,*67
1483434448.94,55770,8.88,72542.0,-15.83,-18.99,-18.99,0,*6F
1483434450.19,55771,8.88,72540.3,-15.83,-18.89,-18.89,0,*6E
1483434451.43,55772,8.88,72546.0,-15.83,-18.89,-18.73,0,*68
1483434452.67,55773,8.81,72544.0,-15.81,-18.83,-18.69,0,*6A
1483434453.91,55774,8.88,72546.5,-15.81,-18.99,-18.83,0,*62
1483434455.17,55775,8.81,72538.8,-15.77,-19.51,-19.23,0,*64
1483434456.39,55776,8.88,72534.8,-15.75,-19.37,-19.07,0,*63
1483434457.68,55777,8.81,72544.0,-15.77,-19.31,-18.93,0,*6A
1483434458.94,55778,8.88,72550.8,-15.77,-19.61,-19.07,0,*6C
1483434460.21,55779,8.88,72548.8,-15.77,-19.47,-18.93,0,*65
1483434461.45,55780,8.81,72544.8,-15.75,-19.23,-18.65,0,*6A
1483434462.72,55781,8.88,72552.3,-15.73,-19.07,-18.55,0,*68
1483434463.96,55782,8.88,72556.3,-15.73,-19.07,-18.45,0,*6A
1483434465.24,55783,8.81,72558.8,-15.73,-19.31,-18.73,0,*6B
1483434466.51,55784,8.88,72558.0,-15.73,-19.17,-18.55,0,*6C
1483434467.75,55785,8.88,72550.5,-15.73,-19.47,-18.79,0,*66
1483434469.01,55786,8.88,72554.0,-15.73,-19.47,-18.89,0,*6A
1483434470.3,55787,8.88,72546.5,-15.73,-19.31,-18.59,0,*67
1483434471.57,55788,8.88,72546.0,-15.73,-19.71,-19.23,0,*60
1483434472.84,55789,8.88,72532.5,-15.73,-19.65,-19.17,0,*63
1483434474.09,55790,8.81,72532.3,-15.73,-19.51,-19.03,0,*69
1483434475.35,55791,8.81,72534.8,-15.73,-19.85,-19.47,0,*61
1483434476.59,55792,8.81,72528.5,-15.75,-19.31,-18.79,0,*67
1483434477.88,55793,8.88,72530.3,-15.73,-18.93,-18.55,0,*67
1483434479.15,55794,8.81,72520.0,-15.73,-18.93,-18.45,0,*61
1483434480.42,55795,8.81,72514.0,-15.73,-19.17,-18.59,0,*60
1483434481.71,55796,8.88,72516.0,-15.73,-19.31,-18.89,0,*6A
1483434483.01,55797,8.81,72520.0,-15.73,-19.65,-19.31,0,*68
1483434484.25,55798,8.88,72512.5,-15.73,-19.51,-19.07,0,*65
1483434485.54,55799,8.88,72522.3,-15.73,-19.65,-19.31,0,*66
1483434486.76,55800,8.81,72524.5,-15.75,-19.95,-19.37,0,*66
1483434488.0,55801,8.88,72530.0,-15.73,-19.71,-19.07,0,*68
1483434489.21,55802,8.81,72530.3,-15.75,-20.25,-19.51,0,*65
1483434490.45,55803,8.88,72530.0,-15.73,-20.09,-19.37,0,*6C
1483434491.72,55804,8.88,72526.0,-15.73,-20.39,-19.81,0,*65
1483434492.98,55805,8.88,72512.5,-15.75,-20.53,-19.81,0,*6E
1483434494.21,55806,8.88,72510.3,-15.75,-20.29,-19.65,0,*6A
1483434495.45,55807,8.81,72502.3,-15.75,-19.71,-18.93,0,*64
1483434496.69,55808,8.88,72502.5,-15.75,-19.61,-18.79,0,*6E
1483434497.9,55809,8.88,72506.0,-15.75,-19.71,-19.03,0,*62
1483434499.12,55810,8.88,72506.3,-15.75,-19.51,-18.65,0,*69